Flag for Belgium Weather past 2 weeks in Ghent, Belgium

Now
57 °F

Overcast.


Feels Like: 56 °F
Forecast: 46 / 62 °F
Wind: 7 mph from Southwest

Location: Munte

Current Time: May 29, 2015 at 1:44:10 PM

Latest Report: May 29, 2015 at 1:00 PM


Visibility: 13 mi

Pressure: 29.83 "Hg

Humidity: 56%

Dew point: 42 °F

Location of GhentLocation

Historic Weather in Ghent — Graph

°F

Ghent temperature yesterday

Maximum temperature yesterday: 64 °F (at 4:00 PM)
Minimum temperature yesterday: 56 °F (at 3:00 AM)
Average temperature yesterday: 58 °F

Past Weeks' High & Low Weather Summary

 TemperatureHumidityPressure
High68 °F (May 24, 6:00 PM)99% (May 14, 10:00 PM)30.37 "Hg (May 14, 10:00 PM)
Low41 °F (May 24, 6:00 AM)39% (May 24, 2:00 PM)29.68 "Hg (May 18, 9:00 PM)
Average54 °F73%30.10 "Hg
* Reported May 14 12:00 Noon — May 29 12:00 Noon, Ghent, Weather by CustomWeather, © 2015

Note: Actual official high and low records may vary slightly from our data, if they occured in-between our weather recording intervals... More about our weather records

Advertising

Ghent weather history for previous 24 hours

 ConditionsComfort  
Time TempWeatherWind HumidityBarometerVisibility
12:00 PM
Fri, May 29
56 °FOvercast.5 mph63%29.84 "Hg12 mi
11:00 AM57 °FOvercast.6 mph67%29.85 "Hg12 mi
10:00 AM54 °FOvercast.5 mph79%29.87 "Hg12 mi
9:00 AM52 °FOvercast.6 mph83%29.88 "Hg12 mi
8:00 AM49 °FOvercast.5 mph88%29.88 "Hg9 mi
7:00 AM48 °FOvercast.3 mph91%29.89 "Hg9 mi
6:00 AM47 °FPartly sunny.3 mph92%29.90 "Hg8 mi
5:00 AM47 °FCool.5 mph90%29.91 "Hg9 mi
4:00 AM47 °FCool.3 mph86%29.93 "Hg11 mi
3:00 AM48 °FCool.3 mph82%29.95 "Hg12 mi
2:00 AM49 °FCool.2 mph80%29.96 "Hg12 mi
12:00 AM52 °FCool.2 mph71%29.99 "Hg12 mi
10:00 PM
Thu, May 28
56 °FCool.2 mph62%29.98 "Hg12 mi
9:00 PM58 °FRefreshingly cool.2 mph55%29.97 "Hg12 mi
8:00 PM58 °FRefreshingly cool.N/A58%29.96 "Hg12 mi
7:00 PM59 °FRefreshingly cool.2 mph58%29.96 "Hg12 mi
6:00 PM60 °FRefreshingly cool.3 mph57%29.97 "Hg12 mi
5:00 PM60 °FRefreshingly cool.3 mph55%29.97 "Hg12 mi
4:00 PM64 °FMild.7 mph47%29.96 "Hg12 mi
3:00 PM63 °FMild.6 mph54%29.96 "Hg12 mi
2:00 PM61 °FRefreshingly cool.6 mph58%29.96 "Hg11 mi
1:00 PM61 °FPartly sunny.6 mph64%29.97 "Hg12 mi
Weather by CustomWeather, © 2015

See weather overviewHow to use our weather pages